This is the latest recevied weather packets stored in our database for station/object DL2ARH-7. If no packets are shown the sender has not sent any weather packets the latest 10 day(s).
| Time | Temp. | Humidity | Pressure | Rain* | Wind** | Luminosity | Snow |
|---|---|---|---|---|---|---|---|
| 1787931240 | 20.56° C | 85% | 1010.7 hPa | 0 mm | - | - | - |
| 1787931173 | -5.56° C | 86% | 1010.5 hPa | 0 mm | - | - | - |
| 1787931107 | 20.56° C | 86% | 1010.6 hPa | 0 mm | - | - | - |
| 1787930974 | -5° C | 86% | 1010.7 hPa | 0 mm | - | - | - |
| 1787930907 | 20.56° C | 86% | 1010.5 hPa | 0 mm | - | - | - |
| 1787930841 | 20.56° C | 86% | 1010.6 hPa | 0 mm | - | - | - |
| 1787930575 | 20.56° C | 86% | 1010.9 hPa | 0 mm | - | - | - |
| 1787930508 | 20.56° C | 86% | 1010.6 hPa | 0 mm | - | - | - |
| 1787930442 | 20.56° C | 86% | 1010.6 hPa | 0 mm | - | - | - |
| 1787930176 | 21.11° C | 86% | 1009.7 hPa | 0 mm | - | - | - |
| 1787930109 | 21.11° C | 86% | 1009.7 hPa | 0 mm | - | - | - |
| 1787930043 | 21.11° C | 86% | 1010 hPa | 0 mm | - | - | - |
| 1787929710 | 21.11° C | 86% | 1010.6 hPa | 0 mm | - | - | - |
| 1787929445 | 21.11° C | 86% | 1011 hPa | 0 mm | - | - | - |
| 1787929378 | 21.11° C | 86% | 1011 hPa | 0 mm | - | - | - |
| 1787929313 | 21.11° C | 86% | 1010.9 hPa | 0 mm | - | - | - |
| 1787928846 | 21.67° C | 86% | 1010.9 hPa | 0 mm | - | - | - |
| 1787928780 | 21.67° C | 86% | 1010.8 hPa | 0 mm | - | - | - |
| 1787928713 | 21.11° C | 86% | 1010.9 hPa | 0 mm | - | - | - |
| 1787928646 | 21.67° C | 86% | 1011 hPa | 0 mm | - | - | - |
| 1787928514 | 21.11° C | 86% | 1010.9 hPa | 0 mm | - | - | - |
| 1787928381 | 21.67° C | 86% | 1011 hPa | 0 mm | - | - | - |
| 1787928314 | 21.67° C | 86% | 1010.9 hPa | 0 mm | - | - | - |
| 1787928048 | 21.11° C | 86% | 1011 hPa | 0 mm | - | - | - |
| 1787927782 | 21.11° C | 86% | 1011.1 hPa | 0 mm | - | - | - |
* Rain latest hour (hover to see other rain measurements)
** Current wind speed in m/s (hover to see current wind gust speed)